Home   Weather   Osterholz-Scharmbeck   Past weeks

Flag for Germany Past Weather in Osterholz-Scharmbeck, Lower Saxony, Germany — Yesterday and Last 2 Weeks

Now
45 °F

Clear.


Feels Like: 40 °F
Forecast: 37 / 42 °F
Wind: 9 mph from Southwest

Location: Bremen Airport

Current Time: Dec 7, 2016 at 7:21:02 pm

Latest Report: Dec 7, 2016 at 6:50 pm


Visibility: 10 mi

Pressure: 30.33 "Hg

Humidity: 76%

Dew Point: 37 °F

Location of Osterholz-ScharmbeckLocation

Past Weather in Osterholz-Scharmbeck — Graph

°F

Osterholz-Scharmbeck Temperature Yesterday

Maximum temperature yesterday: 37 °F (at 2:50 pm)
Minimum temperature yesterday: 18 °F (at 4:50 am)
Average temperature yesterday: 26 °F

High & Low Weather Summary for the Past Weeks

 TemperatureHumidityPressure
High54 °F (Nov 23, 12:20 pm)100% (Nov 23, 9:20 pm)30.60 "Hg (Nov 23, 9:20 pm)
Low18 °F (Nov 29, 7:20 am)57% (Dec 2, 1:20 pm)29.92 "Hg (Nov 22, 6:20 pm)
Average35 °F88%30.28 "Hg
* Reported Nov 22 6:20 pm — Dec 7 6:20 pm, Osterholz-Scharmbeck, Weather by CustomWeather, © 2016

Note: Actual official high and low records may vary slightly from our data, if they occured in-between our weather recording intervals... More about our weather records

Advertising

Osterholz-Scharmbeck Weather History for the Previous 24 Hours

Scroll right to see more
 ConditionsComfort  
Time TempWeatherWind HumidityBarometerVisibility
6:20 pm
Wed, Dec 7
45 °FClear.10 mph76%30.30 "Hg10 mi
5:50 pm43 °FClear.9 mph81%30.33 "Hg10 mi
5:20 pm43 °FClear.9 mph81%30.33 "Hg10 mi
4:50 pm43 °FClear.8 mph81%30.33 "Hg10 mi
4:20 pm43 °FClear.8 mph81%30.33 "Hg10 mi
3:20 pm43 °FLight rain. Partly sunny.8 mph81%30.33 "HgN/A
2:50 pm43 °FOvercast.8 mph81%30.33 "HgN/A
2:20 pm43 °FPassing clouds.7 mph81%30.33 "HgN/A
1:50 pm41 °FLight rain. Clear.8 mph81%30.36 "HgN/A
1:20 pm41 °FSunny.8 mph81%30.33 "Hg10 mi
12:50 pm39 °FSunny.7 mph81%30.36 "Hg10 mi
12:20 pm39 °FSunny.7 mph81%30.36 "Hg10 mi
11:50 am37 °FSunny.7 mph87%30.39 "Hg10 mi
11:20 am37 °FSunny.7 mph81%30.39 "Hg10 mi
10:50 am36 °FSunny.7 mph87%30.39 "Hg10 mi
10:20 am34 °FSunny.8 mph93%30.39 "Hg10 mi
9:50 am32 °FSunny.6 mph93%30.39 "Hg10 mi
9:20 am32 °FSunny.7 mph87%30.39 "Hg10 mi
8:50 am30 °FSunny.7 mph93%30.39 "Hg10 mi
8:20 am30 °FClear.8 mph93%30.39 "Hg10 mi
7:50 am28 °FPassing clouds.6 mph93%30.42 "HgN/A
7:20 am28 °FPassing clouds.6 mph93%30.42 "HgN/A
6:50 am28 °FPassing clouds.6 mph93%30.42 "HgN/A
6:20 am28 °FPassing clouds.6 mph86%30.42 "HgN/A
5:50 am28 °FPassing clouds.7 mph86%30.42 "HgN/A
5:20 am27 °FPartly cloudy.6 mph93%30.42 "HgN/A
4:50 am27 °FClear.7 mph93%30.45 "Hg10 mi
4:20 am27 °FClear.8 mph86%30.45 "Hg10 mi
3:50 am27 °FClear.6 mph86%30.45 "Hg10 mi
3:20 am27 °FClear.6 mph86%30.48 "Hg10 mi
2:50 am27 °FClear.7 mph93%30.48 "Hg10 mi
2:20 am27 °FClear.6 mph86%30.48 "Hg10 mi
1:50 am27 °FClear.5 mph93%30.48 "Hg10 mi
1:20 am27 °FClear.7 mph93%30.48 "Hg10 mi
12:50 am27 °FClear.6 mph93%30.48 "Hg10 mi
12:20 am28 °FClear.6 mph86%30.48 "Hg10 mi
11:50 pm
Tue, Dec 6
28 °FClear.6 mph86%30.48 "Hg10 mi
11:20 pm28 °FClear.5 mph93%30.48 "Hg10 mi
10:50 pm28 °FClear.8 mph93%30.48 "Hg10 mi
10:20 pm28 °FClear.5 mph93%30.51 "Hg10 mi
9:50 pm27 °FClear.5 mph93%30.51 "Hg10 mi
9:20 pm28 °FClear.3 mph93%30.51 "Hg10 mi
8:50 pm27 °FClear.3 mph93%30.51 "Hg10 mi
8:20 pm27 °FFog.5 mph100%30.51 "HgN/A
7:50 pm28 °FFog.3 mph93%30.51 "HgN/A
Weather by CustomWeather, © 2016

See weather overviewHow to use our weather pages